Location: Kissimmee Park Observatory
(28.2088°N, 81.3686°W)
Time: 05:39:35
(UTC-05:00)

ISS - Visible Passes

Search period start: 26 January 2022 00:00
Search period end: 05 February 2022 00:00
Orbit: 413 x 422 km, 51.6° (Epoch: 26 January)

Date Brightness Start Highest point End Pass type
(mag) Time Alt. Az. Time Alt. Az. Time Alt. Az.
02 Feb -1.2 19:20:49 10° N 19:20:56 10° N 19:20:56 10° N visible
03 Feb -0.9 20:07:17 10° NW 20:07:41 13° NW 20:07:41 13° NW visible
04 Feb -3.3 19:18:30 10° NNW 19:21:39 38° NE 19:21:40 38° NE visible
